Temperature
9 9 9 11 11 12 11 11 11 12 13 12 12 13 14 14 14 14 14 15 15 15 15 15 15 15 16 17 18 18 19 19 18 18 17 15 14 14 14 13 13 13 13 12
8 8 10 10 10 10 10 9 10 11 12 11 11 12 13 14 14 14 14 14 15 15 15 15 15 15 15 16 17 18 18 18 18 18 17 15 14 14 14 13 13 13 12 12
9 9 10 9 9 9 9 9 9 10 11 11 10 12 15 16 15 14 14 14 14 15 15 16 16 16 15 16 17 18 18 18 17 17 16 15 14 14 13 13 13 12 12 11
9 9 8 8 8 8 8 10 9 9 9 9 10 10 14 15 14 14 15 15 15 15 15 15 16 16 16 16 16 17 17 17 17 17 17 16 14 13 13 12 12 11 11 11
8 8 8 8 9 9 9 9 9 9 8 8 9 8 12 15 14 14 15 15 15 15 15 15 15 15 15 15 16 17 17 16 16 16 16 14 13 13 13 12 11 11 10 10
9 9 9 9 9 9 9 8 8 8 7 7 10 10 12 15 15 15 16 15 15 15 14 14 14 14 14 14 16 16 16 16 16 15 14 13 12 13 12 12 11 10 10 10
8 8 8 8 8 8 8 7 8 8 7 9 12 11 12 15 15 15 15 15 15 15 14 14 14 14 13 14 15 16 16 16 15 14 13 12 12 13 12 12 11 11 10 10
7 8 9 8 8 8 8 8 8 9 10 12 11 10 13 15 14 14 14 14 14 14 13 13 13 13 13 14 15 15 15 15 15 14 12 12 12 12 12 12 11 11 10 10
8 8 8 8 8 8 7 7 9 8 8 8 10 12 13 14 14 14 14 14 13 13 13 13 13 12 12 13 14 15 15 15 14 13 12 12 12 12 12 11 11 10 10 9
8 7 8 8 8 8 9 8 7 6 7 9 11 12 13 14 14 14 14 14 13 12 12 12 12 12 11 11 12 12 13 13 13 12 12 11 11 11 11 11 10 9 9 9
8 7 7 7 6 7 7 6 6 7 8 8 9 12 14 14 14 14 14 13 12 12 12 12 11 11 10 9 9 9 10 11 11 11 11 11 11 11 10 10 9 9 9 8
8 7 7 8 9 9 9 8 7 7 7 8 8 11 14 14 14 13 13 12 11 11 10 10 10 9 8 8 8 8 9 10 11 11 11 11 10 10 9 9 9 8 8 7
8 6 6 9 9 8 7 8 8 7 6 7 7 10 13 13 13 12 12 11 10 10 9 9 8 7 7 6 6 7 9 10 11 11 11 10 9 9 9 8 8 8 7 6
8 7 7 9 10 9 7 7 7 6 6 7 8 10 12 12 11 11 11 10 9 9 8 8 7 6 6 5 6 7 9 10 11 10 10 9 9 8 8 8 7 7 6 5
7 6 7 8 8 8 8 7 7 6 6 6 8 10 11 11 10 10 10 9 8 8 7 6 6 5 5 5 6 8 9 10 10 9 9 8 8 8 7 7 6 5 5 4
8 7 7 8 9 9 8 8 8 7 7 7 7 8 10 10 9 9 9 8 8 7 6 5 4 4 4 5 6 8 9 9 9 9 8 8 8 7 7 6 5 4 4 3
8 7 7 8 10 9 9 8 8 8 8 8 8 9 10 10 9 9 8 8 7 7 5 4 4 4 4 5 7 8 8 8 8 8 8 7 7 6 5 5 4 3 3 2
8 7 7 7 8 9 11 10 9 8 9 9 9 9 10 9 8 7 7 7 7 6 5 4 4 4 4 5 6 7 7 7 7 7 7 7 6 5 4 3 3 2 2 1
8 7 7 7 8 10 11 11 9 8 9 10 9 9 10 9 8 8 6 6 6 6 5 4 4 5 5 5 6 7 7 7 7 7 6 6 5 4 3 2 2 1 1 0
7 7 7 7 8 10 11 11 10 9 11 10 9 9 9 9 10 8 5 6 6 5 5 5 5 5 6 6 6 7 7 6 6 6 5 4 3 3 2 2 1 0 0 -0
7 7 7 7 8 10 12 11 10 11 11 10 9 9 9 8 7 5 5 5 5 5 5 5 6 6 6 6 6 6 6 6 5 5 4 3 2 2 1 1 0 -0 -1 -1
9 8 8 8 9 10 12 11 11 11 10 8 7 7 7 5 4 5 5 5 5 5 5 5 6 6 6 6 6 6 5 5 4 3 3 2 1 1 0 -0 -1 -1 -1 -1
10 10 10 10 11 13 10 10 9 8 7 7 6 6 6 4 3 4 5 5 5 5 5 5 6 6 5 5 6 6 4 4 3 2 2 1 0 -0 -0 -1 -1 -1 -2 -2
10 9 9 10 11 11 10 9 8 7 6 5 5 5 5 5 4 4 4 4 4 4 4 4 5 5 5 5 5 5 4 3 2 2 1 0 -0 -1 -1 -1 -2 -2 -2 -3
11 9 9 10 11 11 10 8 7 7 6 6 5 5 5 5 4 4 4 4 4 4 4 4 5 5 4 4 4 3 2 2 1 1 0 -1 -1 -1 -2 -2 -2 -3 -3 -4
10 10 11 12 12 11 10 7 7 6 6 5 6 5 4 5 5 5 5 4 4 4 4 4 4 4 3 3 2 2 1 1 0 -0 -1 -1 -2 -2 -2 -3 -3 -3 -4 -4
Wind_Speed
7 7 10 12 13 10 6 10 12 12 11 14 21 26 24 22 23 24 23 22 22 22 20 18 17 15 14 13 13 12 12 14 13 12 12 11 10 9 8 8 12 13 14 14
6 11 12 8 8 11 13 15 17 15 12 12 22 31 28 27 28 27 26 25 25 25 24 22 20 17 16 15 14 13 13 15 16 14 12 9 8 7 8 8 10 12 14 14
10 2 6 10 11 12 14 16 16 16 17 16 19 24 20 16 18 20 22 23 24 25 25 24 23 22 19 17 15 13 15 16 16 16 12 11 8 7 6 8 8 9 12 13
9 8 5 7 10 11 11 10 13 13 10 8 7 12 16 11 12 13 16 18 20 21 22 22 23 23 21 19 15 15 15 17 17 18 16 18 12 10 9 9 9 10 11 12
8 6 9 12 13 12 8 5 8 10 12 13 14 11 19 13 16 15 16 19 19 18 19 20 21 21 20 18 15 15 16 17 18 18 19 18 14 12 12 12 14 12 10 11
8 6 6 7 8 11 7 5 9 10 9 11 16 16 18 15 15 14 14 15 15 15 15 17 18 18 18 16 15 15 17 18 19 19 19 18 19 18 19 17 15 11 9 9
8 11 10 6 6 7 9 5 4 5 7 11 8 11 16 15 11 13 14 14 12 11 12 14 15 15 16 17 17 17 19 19 19 19 18 18 19 21 22 20 17 14 11 10
5 6 10 11 12 8 13 10 8 6 8 10 8 14 14 13 11 14 16 15 13 13 12 13 14 14 16 18 19 19 20 20 20 19 18 17 18 15 15 16 15 13 11 10
6 4 3 9 10 9 7 11 11 9 13 13 13 16 16 14 16 17 17 15 12 11 12 13 12 13 15 18 19 20 21 20 20 19 19 18 17 15 16 16 13 11 11 11
6 5 4 4 8 12 11 5 6 7 7 11 15 22 15 15 14 13 13 11 9 11 14 14 11 11 13 15 17 18 19 20 20 19 18 16 16 16 16 15 14 14 14 12
9 6 4 6 11 14 13 9 10 9 9 8 13 14 8 10 10 11 11 9 10 14 16 15 10 9 11 14 16 17 18 19 19 19 18 18 17 16 16 14 15 14 13 12
10 6 8 12 12 12 15 16 16 11 14 13 13 18 10 11 11 11 10 10 13 16 15 12 7 8 12 15 16 17 18 18 18 18 19 18 18 17 16 15 15 14 13 11
10 6 5 5 6 9 11 17 21 18 14 17 20 17 5 8 11 12 13 14 15 15 12 6 5 10 13 15 16 17 17 17 18 18 19 19 17 17 16 16 15 13 12 11
9 7 10 10 9 7 11 16 19 18 16 20 27 30 24 18 18 18 17 17 15 12 7 3 7 11 13 14 15 16 17 17 18 18 19 18 17 16 16 15 14 13 11 10
8 7 12 19 22 22 25 28 24 23 24 23 29 30 30 23 20 19 17 14 11 7 3 6 10 12 14 15 15 16 17 17 18 18 18 17 17 16 16 15 13 12 10 9
8 7 10 17 20 21 25 26 23 20 19 21 27 28 25 19 14 14 13 11 7 4 4 9 11 13 14 15 16 16 17 17 17 18 18 17 17 16 15 14 12 11 9 8
7 5 5 10 14 17 11 9 9 10 11 11 14 16 16 14 12 11 10 8 5 3 7 11 12 13 14 15 16 17 17 17 17 18 18 17 16 15 14 13 11 10 8 6
8 5 4 7 11 6 4 7 11 13 11 11 15 16 12 11 10 8 7 5 3 5 9 12 12 13 14 15 16 16 17 17 18 18 17 16 15 15 13 12 10 8 6 5
13 8 4 4 7 11 9 5 5 6 6 7 9 11 9 7 6 5 8 3 3 7 11 12 13 15 16 16 17 18 17 17 17 17 16 15 15 14 12 11 9 7 5 4
10 11 7 5 5 5 6 8 4 3 5 8 9 8 5 3 2 5 8 7 10 12 13 14 15 16 16 16 17 18 18 17 17 16 15 14 13 12 11 10 8 5 4 2
5 6 9 8 6 8 8 8 4 3 8 11 9 7 2 1 2 4 7 10 12 14 15 15 16 15 15 16 17 18 17 16 16 15 15 13 11 11 10 8 6 5 3 1
7 6 6 6 6 7 2 3 3 6 8 8 6 3 3 7 8 8 10 12 13 14 15 15 15 15 14 15 17 18 16 16 16 15 14 12 11 9 7 7 6 4 2 1
7 7 4 7 7 5 3 6 7 6 7 6 3 0 7 8 8 9 11 12 12 13 13 14 16 16 14 13 16 18 16 16 15 14 13 11 10 8 7 6 4 2 1 2
4 5 5 6 10 10 9 7 4 3 4 3 0 5 7 10 11 12 12 12 12 13 13 14 16 16 15 14 15 17 16 15 15 14 12 10 9 7 6 4 3 2 2 3
4 5 5 7 9 8 2 2 2 3 4 5 7 8 11 14 13 13 13 12 12 13 13 13 15 16 16 15 15 14 14 14 14 12 10 8 7 6 4 3 2 2 2 3
7 9 7 5 3 3 3 2 2 4 5 7 11 12 11 12 15 14 13 13 13 13 14 14 16 16 16 15 14 12 12 12 13 10 8 6 5 4 3 1 1 1 2 5
Wind_Direction
165 194 210 213 219 245 265 264 266 269 281 290 276 275 272 270 266 264 263 262 260 259 257 254 253 252 244 234 226 218 206 192 180 179 178 175 170 158 146 143 145 142 138 134
171 224 229 228 229 242 251 262 270 281 280 282 284 282 277 267 260 258 258 257 256 256 255 250 247 244 238 229 218 210 199 186 181 180 177 172 145 129 119 120 126 133 134 131
204 174 208 213 223 236 246 254 266 276 295 283 286 287 276 260 252 253 252 253 253 250 249 245 239 235 230 225 215 202 192 183 180 172 155 135 120 117 118 127 126 129 130 128
226 225 208 207 224 230 255 254 261 272 278 280 281 291 286 278 260 253 251 248 247 245 243 241 238 231 225 221 209 198 187 181 175 167 166 165 164 157 155 148 136 130 128 127
208 208 216 228 233 224 245 249 256 266 271 275 254 261 280 269 261 257 252 253 254 252 248 243 239 234 226 216 200 190 182 178 173 173 174 173 164 147 139 137 133 129 126 126
234 209 217 227 230 223 228 251 264 258 258 263 253 236 275 272 265 262 257 259 264 264 261 254 246 237 226 209 193 184 179 176 173 173 173 171 157 148 147 146 141 138 133 132
231 226 220 202 194 192 200 217 256 238 229 250 254 236 257 277 264 256 261 268 277 283 279 268 254 235 217 200 190 183 178 174 172 171 171 165 158 155 155 152 151 147 144 143
222 235 207 205 213 208 201 209 226 256 258 275 255 247 260 275 263 257 260 268 279 287 291 282 263 238 215 198 189 183 178 172 169 168 164 156 155 153 152 152 150 146 143 141
217 248 193 207 206 207 196 216 235 265 279 276 260 259 268 259 255 254 257 263 271 286 298 296 275 239 214 197 188 182 174 168 165 161 153 151 152 149 147 144 139 134 133 136
214 247 227 198 203 219 227 214 206 219 258 264 267 268 267 271 260 255 258 263 277 298 306 304 283 237 207 193 183 176 169 162 157 152 147 145 144 143 141 139 138 135 134 135
204 226 238 197 211 211 203 214 218 234 244 262 278 275 280 265 259 266 269 274 294 307 310 306 284 226 189 177 170 164 159 153 149 146 141 139 138 139 138 134 133 132 133 135
202 220 250 241 230 225 221 225 221 236 242 243 263 273 273 259 261 266 273 287 303 310 309 302 265 187 168 164 161 156 152 148 144 140 137 136 136 136 133 131 131 131 131 132
175 203 263 260 215 214 234 238 235 239 253 253 256 267 263 251 264 273 283 293 304 309 307 288 192 164 158 157 153 149 145 141 138 136 134 134 135 134 131 130 129 129 129 129
186 216 230 256 277 272 256 255 245 239 245 253 252 261 268 274 279 282 285 291 297 299 291 220 162 151 149 149 146 142 137 136 135 134 133 133 133 131 128 127 127 127 129 130
200 243 247 260 272 276 273 272 267 253 248 253 263 268 274 279 282 285 286 289 290 287 221 159 149 144 143 141 137 134 133 134 134 131 129 128 126 124 124 124 125 125 124 124
213 257 275 276 276 277 277 277 276 268 257 252 261 268 272 278 281 281 285 285 274 255 168 149 144 142 142 140 136 133 132 133 131 128 125 125 124 124 124 125 126 124 124 126
208 237 277 288 302 298 278 283 290 284 268 258 261 264 278 286 289 291 293 284 262 204 157 149 147 144 141 139 136 134 132 130 127 124 124 125 125 124 125 127 127 128 129 131
216 225 266 294 309 294 306 296 297 299 294 275 265 276 288 290 297 307 311 291 243 159 146 144 139 134 132 130 129 128 128 126 124 123 124 125 126 126 128 129 128 129 129 131
220 223 254 278 294 286 295 309 313 312 315 334 302 289 288 295 301 341 357 358 121 133 134 133 132 129 128 129 130 127 124 124 123 124 126 129 130 131 132 131 129 129 131 131
211 215 231 262 289 289 307 327 320 264 335 6 343 323 315 313 24 22 14 56 96 110 117 121 123 125 126 130 131 126 125 124 124 126 126 128 130 131 130 127 125 125 128 128
170 197 222 242 260 275 288 314 309 337 339 337 335 328 322 99 64 57 59 76 93 104 113 119 122 122 126 131 128 122 120 120 122 123 122 122 122 121 121 120 120 123 122 125
198 196 206 212 234 262 295 323 331 316 311 313 319 324 119 111 99 88 85 90 97 105 112 116 116 115 122 127 124 117 116 120 122 121 119 117 116 114 116 119 118 113 95 1
215 213 217 221 243 285 296 272 293 302 293 306 310 202 134 122 112 104 98 98 100 104 108 112 114 113 114 118 121 118 122 125 122 119 118 116 114 112 116 116 114 102 45 347
227 209 233 261 268 276 286 290 299 315 306 329 122 143 140 128 124 114 108 105 104 105 110 114 114 112 110 112 114 119 125 126 123 121 120 120 119 116 112 103 89 56 5 338
241 193 227 259 279 297 306 353 9 57 70 85 96 113 126 125 122 118 111 108 108 109 110 111 112 112 113 115 115 119 125 126 122 120 120 119 117 117 109 94 61 6 351 326
214 208 221 255 293 291 328 34 86 102 98 109 111 107 111 119 120 115 110 110 111 111 111 111 111 113 115 115 114 116 122 124 123 121 120 116 115 110 98 65 34 209 307 322
Height
1488 1489 1486 1484 1486 1484 1486 1485 1483 1482 1481 1481 1471 1462 1460 1461 1460 1458 1457 1456 1456 1455 1455 1456 1457 1458 1460 1461 1464 1467 1470 1472 1473 1475 1477 1480 1483 1487 1491 1494 1498 1501 1504 1507
1488 1486 1482 1484 1487 1488 1488 1488 1485 1483 1481 1481 1468 1455 1451 1450 1448 1448 1448 1447 1446 1446 1447 1448 1449 1450 1452 1454 1457 1460 1462 1464 1467 1469 1471 1474 1477 1481 1485 1489 1493 1497 1500 1504
1479 1482 1482 1485 1487 1488 1487 1487 1484 1484 1481 1477 1472 1446 1433 1430 1434 1437 1438 1437 1436 1435 1435 1437 1439 1441 1443 1446 1449 1452 1455 1457 1460 1463 1465 1467 1472 1476 1481 1485 1489 1493 1497 1501
1480 1480 1483 1485 1485 1485 1485 1483 1485 1485 1485 1477 1474 1457 1425 1426 1429 1430 1430 1428 1425 1424 1425 1426 1428 1431 1434 1437 1441 1444 1447 1450 1453 1456 1458 1462 1466 1471 1476 1481 1485 1490 1494 1498
1476 1479 1480 1481 1481 1483 1482 1483 1484 1483 1482 1479 1469 1470 1426 1422 1423 1422 1421 1419 1417 1417 1418 1418 1419 1421 1425 1429 1432 1437 1440 1443 1446 1450 1453 1458 1463 1468 1472 1477 1482 1487 1491 1496
1474 1477 1478 1477 1478 1480 1482 1485 1483 1481 1482 1474 1451 1455 1422 1409 1409 1411 1412 1412 1411 1411 1412 1411 1412 1414 1417 1420 1423 1428 1433 1436 1440 1444 1448 1453 1457 1462 1468 1473 1478 1484 1488 1493
1472 1472 1474 1476 1477 1480 1482 1485 1478 1473 1471 1455 1438 1439 1417 1404 1407 1408 1407 1406 1406 1406 1406 1405 1405 1406 1408 1411 1415 1421 1426 1429 1434 1438 1444 1449 1454 1460 1465 1470 1475 1481 1485 1490
1468 1464 1467 1470 1472 1473 1475 1477 1472 1463 1447 1434 1433 1429 1407 1401 1404 1405 1404 1403 1402 1402 1401 1400 1399 1399 1401 1403 1408 1413 1418 1423 1428 1433 1439 1445 1451 1458 1463 1468 1473 1478 1483 1488
1463 1463 1465 1467 1469 1470 1472 1473 1466 1465 1454 1449 1429 1410 1400 1399 1400 1400 1398 1398 1398 1397 1396 1394 1392 1392 1394 1396 1401 1407 1412 1418 1423 1428 1434 1441 1448 1454 1460 1466 1472 1477 1482 1486
1461 1465 1462 1465 1468 1468 1466 1465 1469 1469 1455 1436 1413 1402 1393 1388 1390 1392 1392 1392 1392 1392 1390 1388 1386 1386 1388 1391 1396 1402 1408 1413 1419 1425 1431 1438 1445 1452 1459 1465 1470 1476 1480 1484
1460 1465 1462 1463 1461 1457 1464 1467 1464 1457 1449 1438 1415 1394 1382 1385 1386 1386 1387 1387 1388 1387 1384 1382 1381 1381 1383 1387 1392 1397 1404 1410 1416 1422 1429 1436 1443 1451 1457 1464 1469 1474 1478 1482
1458 1461 1458 1451 1447 1450 1450 1450 1452 1452 1440 1432 1420 1393 1382 1383 1383 1384 1384 1384 1383 1382 1379 1377 1376 1377 1380 1384 1389 1395 1401 1408 1414 1421 1428 1436 1443 1450 1457 1463 1468 1473 1477 1479
1455 1459 1454 1437 1444 1449 1448 1442 1441 1442 1437 1426 1417 1393 1380 1381 1381 1382 1381 1380 1379 1377 1374 1373 1373 1375 1378 1383 1388 1394 1400 1407 1414 1421 1428 1435 1443 1450 1456 1462 1467 1471 1475 1477
1453 1452 1449 1437 1427 1435 1440 1435 1434 1436 1427 1412 1399 1384 1377 1379 1379 1378 1377 1376 1374 1373 1372 1371 1372 1374 1378 1383 1388 1393 1399 1407 1414 1422 1429 1436 1443 1450 1456 1462 1466 1470 1473 1475
1449 1447 1442 1437 1432 1431 1428 1423 1421 1421 1415 1408 1388 1381 1373 1375 1376 1375 1373 1371 1370 1370 1370 1370 1372 1375 1378 1383 1388 1394 1400 1408 1416 1423 1430 1437 1444 1450 1456 1461 1465 1468 1471 1473
1444 1442 1437 1430 1424 1419 1415 1408 1405 1401 1398 1394 1389 1380 1371 1372 1373 1371 1370 1368 1367 1368 1369 1370 1372 1375 1379 1383 1388 1394 1402 1409 1417 1424 1431 1438 1445 1451 1456 1461 1464 1467 1469 1470
1439 1439 1436 1423 1413 1412 1404 1399 1397 1392 1386 1385 1380 1371 1368 1369 1368 1368 1367 1366 1365 1366 1368 1370 1373 1376 1380 1385 1390 1396 1404 1411 1419 1426 1433 1440 1446 1451 1456 1460 1463 1466 1467 1468
1434 1435 1435 1425 1417 1405 1396 1393 1392 1387 1380 1377 1374 1369 1368 1368 1367 1366 1365 1364 1364 1366 1368 1371 1374 1378 1382 1387 1393 1400 1407 1414 1422 1429 1436 1442 1447 1452 1456 1460 1462 1464 1465 1466
1430 1433 1432 1426 1415 1402 1391 1389 1390 1388 1380 1375 1371 1368 1368 1367 1367 1365 1365 1364 1365 1367 1370 1373 1376 1380 1385 1391 1397 1404 1411 1418 1426 1432 1438 1444 1448 1453 1456 1459 1461 1463 1464 1464
1426 1429 1430 1424 1417 1403 1390 1386 1386 1388 1377 1375 1372 1369 1368 1368 1366 1369 1368 1367 1368 1370 1373 1376 1380 1385 1390 1396 1403 1409 1416 1423 1429 1435 1440 1445 1450 1454 1456 1459 1460 1461 1461 1461
1423 1425 1424 1420 1416 1399 1388 1386 1385 1383 1380 1376 1374 1372 1370 1371 1373 1375 1372 1372 1373 1375 1378 1381 1386 1391 1396 1402 1408 1414 1420 1426 1432 1437 1442 1447 1451 1454 1456 1458 1459 1459 1459 1458
1411 1413 1413 1412 1409 1399 1386 1385 1385 1383 1379 1377 1375 1373 1372 1373 1374 1375 1375 1376 1377 1379 1383 1387 1391 1396 1402 1408 1413 1418 1424 1430 1435 1440 1444 1448 1451 1454 1456 1457 1457 1457 1457 1455
1405 1404 1401 1400 1394 1386 1386 1385 1383 1381 1379 1376 1374 1373 1373 1374 1376 1377 1378 1380 1383 1385 1388 1392 1396 1400 1406 1413 1418 1422 1428 1433 1438 1442 1446 1449 1452 1454 1455 1455 1455 1455 1454 1452
1400 1402 1401 1396 1387 1384 1383 1382 1380 1378 1376 1374 1373 1373 1374 1375 1377 1379 1381 1384 1387 1390 1393 1397 1401 1405 1411 1417 1423 1428 1432 1437 1441 1444 1447 1450 1452 1453 1454 1454 1453 1452 1450 1448
1395 1398 1397 1392 1385 1382 1380 1380 1379 1377 1376 1374 1374 1374 1376 1377 1380 1382 1385 1388 1391 1394 1398 1402 1406 1410 1416 1422 1427 1432 1436 1440 1443 1445 1448 1450 1451 1452 1452 1452 1451 1449 1447 1445
1391 1391 1390 1385 1383 1383 1382 1380 1379 1378 1377 1377 1377 1377 1380 1381 1383 1386 1389 1393 1396 1399 1403 1407 1412 1416 1421 1426 1431 1435 1439 1442 1445 1446 1448 1450 1451 1451 1451 1450 1448 1446 1445 1442